This is the latest recevied weather packets stored in our database for station/object N5XJB. If no packets are shown the sender has not sent any weather packets the latest 10 day(s).
| Time | Temp. | Humidity | Pressure | Rain* | Wind** | Luminosity | Snow |
|---|---|---|---|---|---|---|---|
| 1777987905 | 24.44° C | 89% | 1010.4 hPa | 0 mm | - | 87 W/m² | - |
| 1777987601 | 24.44° C | 89% | 1010.4 hPa | 0 mm | - | 87 W/m² | - |
| 1777987299 | 24.44° C | 89% | 1010.4 hPa | 0 mm | - | 122 W/m² | - |
| 1777986995 | 23.89° C | 89% | 1010.4 hPa | 0 mm | - | 136 W/m² | - |
| 1777986694 | 23.89° C | 90% | 1010 hPa | 0 mm | - | 90 W/m² | - |
| 1777986391 | 23.89° C | 90% | 1010 hPa | 0 mm | - | 96 W/m² | - |
| 1777986090 | 23.89° C | 90% | 1010 hPa | 0 mm | - | 108 W/m² | - |
| 1777985786 | 23.33° C | 90% | 1010 hPa | 0 mm | - | 86 W/m² | - |
| 1777985483 | 23.33° C | 90% | 1009.7 hPa | 0 mm | - | 92 W/m² | - |
| 1777985179 | 23.33° C | 91% | 1009.7 hPa | 0 mm | - | 69 W/m² | - |
| 1777984876 | 23.33° C | 91% | 1010 hPa | 0 mm | - | 63 W/m² | - |
| 1777984572 | 23.33° C | 91% | 1010 hPa | 0 mm | - | 59 W/m² | - |
| 1777984269 | 22.78° C | 92% | 1010 hPa | 0 mm | - | 58 W/m² | - |
| 1777983966 | 22.78° C | 92% | 1009.7 hPa | 0 mm | - | 51 W/m² | - |
| 1777983663 | 22.78° C | 92% | 1009.7 hPa | 0 mm | - | 39 W/m² | - |
| 1777983359 | 22.78° C | 92% | 1009.7 hPa | 0 mm | - | 26 W/m² | - |
| 1777983056 | 22.78° C | 93% | 1009.7 hPa | 0 mm | - | 25 W/m² | - |
| 1777982752 | 22.78° C | 93% | 1009.3 hPa | 0 mm | - | 12 W/m² | - |
| 1777982448 | 22.78° C | 93% | 1009.7 hPa | 0 mm | - | 9 W/m² | - |
| 1777982142 | 22.22° C | 93% | 1009.3 hPa | 0 mm | - | 7 W/m² | - |
| 1777981840 | 22.22° C | 93% | 1009.3 hPa | 0 mm | - | 4 W/m² | - |
| 1777981537 | 22.22° C | 93% | 1009.7 hPa | 0 mm | - | 3 W/m² | - |
| 1777981233 | 22.22° C | 93% | 1009.7 hPa | 0 mm | - | 2 W/m² | - |
| 1777980930 | 22.22° C | 93% | 1009.7 hPa | 0 mm | - | 1 W/m² | - |
| 1777980626 | 22.22° C | 93% | 1009.7 hPa | 0 mm | - | 1 W/m² | - |
* Rain latest hour (hover to see other rain measurements)
** Current wind speed in m/s (hover to see current wind gust speed)